Tracking 18032 objects as of 24-March-2017
HD Live streaming from Space Station
objects crossing your sky now

BREEZE-M DEB

Track BREEZE-M DEB now!
10-day predictions


NORAD ID: 34250
Int'l Code: 2006-006BR
Perigee: -6,371.0 km
Apogee: -6,371.0 km
Inclination: 51.7 °
Period: 0.0 minutes
Semi major axis: 0 km
RCS: 0.0694 m2 (small)
Launch date: February 28, 2006
Source: Commonwealth of Independent States (former USSR) (CIS)
Launch site: TYURATAM MISSILE AND SPACE COMPLEX (TTMTR)

Note: This is SATELLITE DEBRIS
Your satellite tracking list
Your tracking list is empty





NASA's NSSDC Master Catalog

Two Line Element Set (TLE):
1 34250U 06006BR  17081.59063052 +.00000401 +00000-0 +61947-3 0  9998
2 34250 051.6970 102.7760 5085756 349.2689 003.0580 05.24689771177565
Source of the keplerian elements: AFSPC